EW4715 Weather Reports


Display with metric or nautical units.
time (UTC)temp
F
wind
direction
speed
MPH
gust
MPH
rain 1hr
in
rain 24hr
in
rain mn
in
humidity
%
barometer
mb
20220926124518 45 333 0.0 0.0 0.00 0.04 0.03 15 1017.0
20220926123020 45 333 0.0 0.0 0.00 0.04 0.03 15 1016.9
20220926121525 45 333 0.0 0.0 0.01 0.04 0.03 15 1016.9
20220926120022 45 333 0.0 0.0 0.01 0.04 0.03 15 1016.8
20220926114513 45 333 0.0 0.0 0.01 0.04 0.03 15 1016.8
20220926113016 45 333 0.0 0.0 0.01 0.04 0.03 15 1016.7
20220926111515 45 333 0.0 0.0 0.00 0.03 0.02 15 1016.7
20220926110011 45 333 0.0 0.0 0.00 0.03 0.02 15 1016.7
20220926104509 45 333 0.0 0.0 0.00 0.03 0.02 15 1016.6
20220926103008 46 333 0.0 0.0 0.00 0.03 0.02 15 1016.7
20220926101507 46 333 0.0 0.0 0.00 0.03 0.02 15 1016.6
20220926100004 46 333 0.0 0.0 0.00 0.03 0.02 15 1016.4
20220926094503 46 333 0.0 0.0 0.00 0.03 0.02 15 1016.3
20220926093111 46 333 0.0 0.0 0.00 0.03 0.02 15 1016.3
20220926091559 46 333 0.0 0.0 0.00 0.03 0.02 15 1016.1
20220926090057 46 333 0.0 0.0 0.01 0.03 0.02 15 1016.0
20220926084618 47 333 0.0 0.0 0.01 0.03 0.02 15 1015.9
20220926083101 47 333 0.0 0.0 0.01 0.03 0.02 15 1015.8
20220926081601 47 333 0.0 0.0 0.01 0.03 0.02 15 1015.7
20220926080048 48 333 0.0 0.0 0.00 0.02 0.02 15 1015.6
20220926074546 48 333 0.0 0.0 0.00 0.02 0.02 15 1015.6
20220926073109 48 333 0.0 0.0 0.01 0.02 0.02 15 1015.5
20220926071554 48 333 0.0 0.0 0.01 0.02 0.02 21 1015.5
20220926070040 49 333 0.0 1.0 0.02 0.02 0.02 27 1015.5
20220926064538 49 333 0.0 0.0 0.02 0.02 0.02 37 1015.5
20220926063035 49 348 0.0 0.0 0.01 0.02 0.01 45 1015.5
20220926061531 50 348 0.0 0.0 0.01 0.02 0.01 60 1015.4
20220926060027 51 348 0.0 1.0 0.00 0.01 0.00 70 1015.5
20220926054523 52 314 1.0 5.0 0.00 0.01 0.00 72 1015.4
20220926053023 52 302 0.0 2.0 0.00 0.01 0.00 71 1015.3
20220926051520 53 313 1.0 6.0 0.00 0.01 0.00 72 1015.3
20220926050025 53 360 2.0 10.0 0.00 0.01 0.00 71 1015.3
20220926044516 53 273 1.0 5.0 0.00 0.01 0.00 69 1015.3
20220926043021 53 355 1.0 6.0 0.00 0.01 0.00 66 1015.3
20220926041514 53 305 1.0 2.0 0.00 0.01 0.00 69 1015.6
20220926040012 53 302 0.0 5.0 0.00 0.01 0.00 70 1015.5
20220926034514 54 304 0.0 5.0 0.00 0.01 0.00 70 1015.4
20220926033008 55 344 0.0 2.0 0.00 0.01 0.00 70 1015.5
20220926031506 55 328 1.0 4.0 0.00 0.01 0.00 71 1015.6
20220926030009 55 355 0.0 6.0 0.00 0.01 0.00 70 1015.6
20220926024557 55 37 1.0 4.0 0.00 0.01 0.00 70 1015.7
20220926023113 55 355 1.0 6.0 0.00 0.01 0.00 69 1015.9
20220926021554 56 25 4.0 8.0 0.00 0.01 0.00 68 1016.1
20220926020056 55 87 2.0 7.0 0.00 0.01 0.00 68 1016.2
20220926014602 0 0.0 0.0 0.00 0.01 0.00
20220926013001 54 307 3.0 7.0 0.00 0.01 0.01 65 1016.6
20220926011558 53 21 3.0 6.0 0.00 0.01 0.01 61 1016.8
20220926011501 53 350 3.0 6.0 0.00 0.01 0.01 61 1016.9
20220926010053 53 315 3.0 9.0 0.00 0.01 0.01 56 1016.9
20220926004549 52 310 2.0 6.0 0.01 0.02 0.01 52 1017.1
20220926003044 52 342 2.0 9.0 0.01 0.02 0.01 47 1017.2
20220926001540 52 305 2.0 6.0 0.01 0.02 0.01 36 1017.1
20220926000036 51 311 1.0 6.0 0.01 0.02 0.01 23 1017.1
20220925234531 49 312 1.0 5.0 0.00 0.01 0.00 15 1017.1
20220925233027 48 226 1.0 4.0 0.00 0.01 0.00 15 1017.1
20220925231528 47 26 0.0 0.0 0.00 0.01 0.00 15 1017.2
20220925230022 46 355 0.0 0.0 0.00 0.01 0.00 15 1017.2
20220925224516 46 355 0.0 0.0 0.00 0.01 0.00 15 1017.3
20220925223009 44 355 0.0 0.0 0.00 0.01 0.00 15 1017.4
20220925221517 43 355 0.0 0.0 0.00 0.01 0.00 15 1017.5
20220925220002 42 355 0.0 0.0 0.00 0.01 0.00 15 1017.4
20220925214607 42 355 0.0 0.0 0.00 0.01 0.00 15 1017.4
20220925213106 41 288 0.0 0.0 0.00 0.01 0.00 15 1017.3
20220925211554 40 288 0.0 0.0 0.00 0.01 0.00 15 1017.3
20220925210047 40 288 0.0 0.0 0.00 0.01 0.00 15 1017.1
20220925204541 39 288 0.0 0.0 0.00 0.01 0.00 15 1017.2
20220925203040 38 288 0.0 0.0 0.00 0.01 0.00 15 1017.1
20220925201535 38 288 0.0 0.0 0.00 0.01 0.00 15 1017.0
20220925200025 38 288 0.0 0.0 0.00 0.01 0.00 15 1016.8
20220925194521 38 288 0.0 0.0 0.00 0.01 0.00 15 1016.6
20220925193032 38 288 0.0 0.0 0.00 0.01 0.00 15 1016.6
20220925191513 38 288 0.0 0.0 0.00 0.01 0.00 15 1016.6
20220925190021 39 288 0.0 0.0 0.00 0.01 0.00 15 1016.7
20220925184503 39 288 0.0 4.0 0.00 0.01 0.00 15 1016.6
20220925183100 38 290 0.0 0.0 0.00 0.01 0.00 15 1016.5
20220925181555 37 290 0.0 0.0 0.00 0.01 0.00 15 1016.3
20220925180115 36 290 0.0 0.0 0.00 0.01 0.00 15 1016.2
20220925174549 36 290 0.0 0.0 0.00 0.01 0.00 15 1016.2
20220925173059 36 290 0.0 0.0 0.00 0.01 0.00 15 1016.2
20220925171547 36 290 0.0 0.0 0.00 0.01 0.00 15 1016.3
20220925170033 36 290 0.0 0.0 0.00 0.01 0.00 15 1016.3
20220925164530 36 290 0.0 0.0 0.00 0.01 0.00 15 1016.4
20220925163034 36 290 0.0 0.0 0.00 0.01 0.00 15 1016.5
20220925161520 36 301 0.0 0.0 0.00 0.01 0.00 15 1016.6
20220925160015 36 301 0.0 0.0 0.00 0.01 0.00 15 1016.7
20220925154512 36 301 0.0 0.0 0.00 0.01 0.00 15 1016.9
20220925153007 37 301 0.0 0.0 0.00 0.01 0.00 15 1017.1
20220925151509 37 301 1.0 4.0 0.00 0.01 0.00 15 1017.1
20220925150101 37 301 0.0 0.0 0.00 0.01 0.00 15 1017.3
20220925144554 37 301 0.0 0.0 0.00 0.01 0.00 15 1017.2
20220925143059 37 301 0.0 0.0 0.00 0.01 0.00 15 1017.1
20220925141554 38 301 0.0 0.0 0.00 0.01 0.00 15 1016.9
20220925140047 38 298 0.0 0.0 0.00 0.01 0.00 15 1016.8
20220925134545 38 298 0.0 0.0 0.00 0.01 0.01 15 1016.9
20220925133030 39 298 0.0 0.0 0.00 0.01 0.01 15 1016.8
20220925131527 39 298 0.0 0.0 0.00 0.01 0.01 15 1017.0
20220925130036 40 298 0.0 0.0 0.00 0.01 0.01 15 1017.1